Location: LDNL
(36.4545°S, 141.6685°E)
Time: 19:59:57
(UTC+10:00)

Tiros 1 despin weight - Pass Details

Date: 25 January 2022
Orbit: 592 x 639 km, 48.2° (Epoch: 28 May)

Event Time Altitude Azimuth Distance (km) Brightness Sun altitude
Exits shadow 05:37:07 14° 332° (NNW) 1,715 ? -12.1°
Maximum altitude 05:40:46 47° 42° (NE) 827 ? -11.5°
Drops below altitude 10° 05:45:07 10° 115° (ESE) 1,979 ? -10.8°
Sets 05:47:29 0° 120° (ESE) 2,880 ? -10.4°
